Location: Kumla
(59.1265°N, 15.1401°E)
Time: 17:32:18
(UTC+01:00)

Altair - Pass Details

Date: 06 December 2023
Orbit: 1501 x 1682 km, 47.2° (Epoch: 25 February)

Event Time Altitude Azimuth Distance (km) Brightness Sun altitude
Rises 09:45:28 0° 239° (WSW) 4,797 10.1 4.4°
Reaches altitude 10° 09:48:52 10° 232° (SW) 3,786 9.7 4.6°
Maximum altitude 09:57:22 38° 169° (S) 2,190 9.4 5.1°
Drops below altitude 10° 10:05:39 10° 105° (ESE) 3,679 10.2 5.6°
Sets 10:08:53 0° 98° (E) 4,648 10.5 5.8°
